SILO ALERT LOG
| Silo ID | Alert Type | Alert Message | Silo Type | Points | Depth (mm) | Strength | Temperature (°C) | Humidity (%) | Height (mm) | Volume (㎥) | Weight (t) | Flag | Time |
|---|---|---|---|---|---|---|---|---|---|---|---|---|---|
| DJSAD11 | Humidity | 습도센서 측정값이 80% 초과 | 평 | 338 | 1631 | 3258 | 1.1 | 80.5 | 5948 | 846.439 | 535.119 | 11 | 2024-01-11 00:39:36.000 |
| DJHNR01 | Humidity | 습도센서 측정값이 80% 초과 | 호퍼 | 471 | 4307 | 5018 | 3.5 | 99.9 | 11072 | 472.84 | 298.929 | 13 | 2024-01-11 00:39:33.000 |
| DJSSD04 | Temperature | 온도센서 상태 이상 | 평 | 0 | 8200 | 0 | -999 | -999 | -120 | -16.702 | 0 | 31 | 2024-01-11 00:39:33.000 |
| DJSSD11 | Temperature | 온도센서 측정값이 0도 미만 | 호퍼 | 446 | 7408 | 147 | -3.6 | 79.5 | 3821 | 28.493 | 15.529 | 0 | 2024-01-11 00:39:32.000 |
| DJSAD12 | Humidity | 습도센서 측정값이 80% 초과 | 평 | 0 | 7700 | 0 | 2.6 | 86.6 | -120 | -17.075 | 0 | 31 | 2024-01-11 00:39:32.000 |
| DJSSD09 | Temperature | 온도센서 측정값이 0도 미만 | 평 | 127 | 2872 | 3214 | -45.4 | 0 | 4807 | 669.104 | 423.007 | 11 | 2024-01-11 00:39:32.000 |
| DJDJD04 | Humidity | 습도센서 측정값이 80% 초과 | 평 | 275 | 4201 | 4462 | 2.8 | 81.7 | 3478 | 421.447 | 266.439 | 11 | 2024-01-11 00:39:32.000 |
| DJSSD01 | Humidity | 습도센서 측정값이 80% 초과 | 평 | 792 | 2563 | 4654 | 5 | 83.5 | 5516 | 767.743 | 485.367 | 0 | 2024-01-11 00:39:32.000 |
| DJSSD05 | Temperature | 온도센서 측정값이 0도 미만 | 평 | 838 | 2546 | 4875 | -45.4 | 43.5 | 5533 | 770.186 | 486.912 | 0 | 2024-01-11 00:39:32.000 |
| DJSAD16 | Humidity | 습도센서 측정값이 80% 초과 | 평 | 94 | 6198 | 3420 | 3.6 | 80.5 | 1381 | 137.585 | 86.981 | 11 | 2024-01-11 00:39:31.000 |
| DJHNR11 | Temperature | 온도센서 측정값이 0도 미만 | 호퍼 | 231 | 3250 | 1075 | -3 | 75.2 | 7129 | 99.837 | 63.117 | 11 | 2024-01-11 00:39:31.000 |
| DJHNR13 | Temperature | 온도센서 측정값이 0도 미만 | 호퍼 | 51 | 1098 | 5377 | -1.4 | 70.4 | 9281 | 146.249 | 92.459 | 11 | 2024-01-11 00:39:30.000 |
| DJHNR14 | Temperature | 온도센서 측정값이 0도 미만 | 호퍼 | 27 | 3072 | 4343 | -2 | 72.9 | 7307 | 103.673 | 65.542 | 11 | 2024-01-11 00:39:30.000 |
| DJSAD18 | Humidity | 습도센서 측정값이 80% 초과 | 평 | 122 | 1389 | 5839 | 4 | 80.8 | 6190 | 616.456 | 389.724 | 11 | 2024-01-11 00:39:30.000 |
| DJSAD17 | Humidity | 습도센서 측정값이 80% 초과 | 평 | 445 | 3111 | 4807 | 3.4 | 80.4 | 4468 | 444.918 | 281.277 | 0 | 2024-01-11 00:39:29.000 |
| DJHNR03 | Temperature | 온도센서 상태 이상 | 호퍼 | 0 | 15500 | 0 | -999 | -999 | -119 | 0 | 0 | 31 | 2024-01-11 00:39:24.000 |
| DJSSD12 | Temperature | 온도센서 상태 이상 | 호퍼 | 0 | 11350 | 0 | -999 | -999 | -120 | 0 | 0 | 31 | 2024-01-11 00:39:24.000 |
| DJHNR12 | Humidity | 습도센서 측정값이 80% 초과 | 호퍼 | 0 | 10500 | 0 | -2.6 | 82.5 | -120 | 0 | 0 | 31 | 2024-01-11 00:39:23.000 |
| DJHNR12 | Temperature | 온도센서 측정값이 0도 미만 | 호퍼 | 0 | 10500 | 0 | -2.6 | 82.5 | -120 | 0 | 0 | 31 | 2024-01-11 00:39:23.000 |
| DJDJD03 | Humidity | 습도센서 측정값이 80% 초과 | 평 | 61 | 4763 | 5129 | 1.9 | 80.6 | 2916 | 353.3 | 223.356 | 0 | 2024-01-10 23:39:39.000 |
[첫 페이지] [10008] [10009] [10010] [10011] 10012 [10013] [10014] [10015] [10016] [마지막 페이지]